Location: Pcim
(49.7500°N, 19.9670°E)
Time: 23:59:23
(UTC+02:00)

MOZHAYETS 4 - Visible Passes

Search period start: 24 April 2024 00:00
Search period end: 04 May 2024 00:00
Orbit: 654 x 670 km, 98.3° (Epoch: 24 April)

Date Brightness Start Highest point End Pass type
(mag) Time Alt. Az. Time Alt. Az. Time Alt. Az.
24 Apr 10.2 02:30:57 10° ESE 02:34:17 20° ENE 02:37:38 10° NNE visible
24 Apr 7.7 04:06:15 10° S 04:10:48 61° WSW 04:15:23 10° NNW visible
25 Apr 9.4 03:00:07 10° SE 03:04:16 34° ENE 03:08:25 10° N visible
25 Apr 8.5 04:37:03 10° SSW 04:41:10 32° W 04:45:20 10° NNW visible
26 Apr 10.9 01:57:21 10° ENE 01:58:19 11° NE 01:59:17 10° NE visible
26 Apr 8.2 03:29:49 10° SSE 03:34:21 63° ENE 03:38:54 10° N visible
27 Apr 10.4 02:25:02 10° E 02:28:07 18° ENE 02:31:12 10° NNE visible
27 Apr 7.7 03:59:57 10° S 04:04:32 71° WSW 04:09:09 10° NNW visible
28 Apr 9.6 02:54:02 10° SE 02:58:02 30° ENE 03:02:03 10° N visible
28 Apr 8.3 04:30:36 10° SSW 04:34:51 37° W 04:39:09 10° NNW visible
29 Apr 8.5 03:23:36 10° SSE 03:28:04 54° ENE 03:32:33 10° N visible
30 Apr 10.5 02:19:06 10° E 02:21:53 16° ENE 02:24:40 10° NNE visible
30 Apr 7.7 03:53:37 10° SSE 03:58:13 81° WSW 04:02:50 10° NNW visible
01 May 9.8 02:47:54 10° ESE 02:51:45 27° ENE 02:55:35 10° N visible
01 May 8.1 04:24:07 10° S 04:28:29 43° W 04:32:52 10° NNW visible
02 May 8.8 03:17:20 10° SE 03:21:43 47° ENE 03:26:08 10° N visible
03 May 10.6 02:13:10 10° E 02:15:35 14° NE 02:18:00 10° NNE visible
03 May 7.7 03:47:13 10° SSE 03:51:49 88° ENE 03:56:26 10° NNW visible
